Weather in Nizhniy Unal

Russia / Republic of North Ossetia — Alania     42°51′33″N   44°08′50″E
В апреле 2022 года жителям России запретили посещать сайт meteo.paraplan.net по решению Генеральной прокуратуры. Аудитория сайта уменьшилась в 10 раз. Владельцы сайта не видят смысла в поддержке погодного сервера в таких условиях. Сайт будет закрыт в октябре.
temp.,
°C
wind,
m/s
gust,
m/s
humid.,
%
clouds,
%
prec.,
mm/h
press.,
hPa
HPBL,
m
4 october, tue
tue400:00+5s558561 0.7 1016147
03:00+5s6689100 1.6 1016196
06:00+5s689049 4.0 1017389
09:00+8s697962 4.3 1017703
12:00+11ssw6115827 0.3 10161514
15:00+10s46624 0.9 1018476
18:00+7s43764 0.0 101929
21:00+6s447528 0.0 102145
5 october, wed
wed500:00+6s55753 0.0 102261
03:00+5s55750 0.0 102257
06:00+6s54673 0.0 102250
09:00+12s57473 0.0 1020916
12:00+11ssw5756100 0.1 10221392
15:00+12ssw385213 0.4 10211429
18:00+6sse228230 0.5 102481
21:00+7s447531 0.8 102458
6 october, thu
thu600:00+5s328164 0.3 102432
03:00+5sse328133 0.6 102459
06:00+4s328444 0.3 102453
09:00+9ssw246319 0.7 1022637
12:00+10ssw357230 0.6 1021694
15:00+8ssw367645 1.2 1021739
18:00+5ssw239456 0.5 1024206
21:00+5s339254 0.8 1024152
7 october, fri
fri700:00+5s349469 0.3 1024188
03:00+4s229555 0.4 1024154
06:00+3sse229563 0.0 102480
09:00+7se028028 0.0 1023281
12:00+10sw136917 0.2 1021448
15:00+9ssw136825 0.9 1021481
18:00+5sse229142 0.1 102342
21:00+4sse32815 0.1 102328
8 october, sat
sat800:00+4s44833 0.0 102350
03:00+4s54785 0.0 102347
06:00+5s43685 0.0 102133
09:00+11s335186 0.0 1019235
12:00+14s35449 0.0 1017921
15:00+13s344750 0.0 1016801
18:00+7s557562 0.0 101966
21:00+7s556025 0.0 101957